Retour au catalogue

STARLINK-31883

ActifCommunicationsVLEO
NORAD 60020·PAYLOAD·🇺🇸 United States

Lancé Jun 8, 2024 depuis Cape Canaveral Space Force Station

Loading…

Prochains Passages (prochaines 24 heures)

TLE

FraisSource: CelesTrak SupGP

Époque: Sep 14, 2026, 22:25 UTC

1 60020C 24111E   26257.93451389  .00046910  00000+0  13862-2 0  2579
2 60020  53.1583 275.9526 0001218  88.5324  29.8536 15.34362692    18

Suivez STARLINK-31883 en temps réel avec AllMySat

Download on the App Store